Regional Weather Roundup
Issued by NWS Spokane, WA

Home | Current Version | Previous Version | Text Only | Print | Product List | Glossary On
Versions: 1 2 3 4 5 6 7 8 9 10 11 12 13 14 15 16 17 18 19 20 21 22 23 24 25 26 27 28 29 30 31 32 33 34 35 36 37 38 39 40 41 42 43 44 45 46 47 48 49 50
000
NZUS01 KOTX 301710
RWROTX
EASTERN WASHINGTON/NORTHERN IDAHO ROUNDUP
NATIONAL WEATHER SERVICE, SPOKANE WA
1000 AM PDT THU JUL 30 2015

Note: "fair" indicated few or no clouds below 12,000 feet with no
significant weather and/or obstructions to visibility.

...NORTHEAST WASHINGTON AND NORTHERN IDAHO PANHANDLE...

CITY           SKY/WX    TMP DP  RH WIND       PRES   REMARKS
SPOKANE INTL   SUNNY     79  44  28 VRB5      30.20S
SPOKANE DOWNTO SUNNY     79  45  29 CALM      30.19F
COEUR D ALENE  SUNNY     75  45  33 N3        30.20F
DEER PARK      SUNNY     78  43  28 CALM      30.20F
SANDPOINT      SUNNY     73  45  35 E5        30.22S
BONNERS FERRY  FAIR      68  45  42 S3        30.23F

...SOUTHEAST WASHINGTON AND SOUTHERN IDAHO PANHANDLE...

CITY           SKY/WX    TMP DP  RH WIND       PRES   REMARKS
WALLA WALLA    SUNNY     84  39  20 NW6       30.11S
PULLMAN/MOSCOW SUNNY     82  41  23 E12       30.22F
LEWISTON       SUNNY     80  42  25 VRB5      30.16F
LOWELL           N/A     69  47  45 N3        30.22F

...COLUMBIA BASIN...

CITY           SKY/WX    TMP DP  RH WIND       PRES   REMARKS
EPHRATA        SUNNY     85  39  19 N8        30.12F
MOSES LAKE     SUNNY     83  39  21 N8        30.13F
TRI CITIES     SUNNY     79  45  29 CALM      30.10F
HERMISTON      SUNNY     79  46  31 W5        30.09F
PENDLETON      SUNNY     86  35  16 CALM      30.11F

...EAST SLOPES CASCADES...

CITY           SKY/WX    TMP DP  RH WIND       PRES   REMARKS
THE DALLES     SUNNY     78  41  26 CALM      30.07F
YAKIMA         SUNNY     83  47  28 VRB6      30.12F
ELLENSBURG     SUNNY     77  44  30 VRB3      30.16F
WENATCHEE      SUNNY     78  41  26 VRB5      30.14F
OMAK           SUNNY     82  35  18 N10       30.14F

...SOUTHERN BRITISH COLUMBIA...

CITY           SKY/WX    TMP DP  RH WIND       PRES   REMARKS
PENTICTON      MOSUNNY   73  48  40 N9        30.16F
CASTLEGAR      SUNNY     70  48  46 N3        30.21F
CRANBROOK      MOSUNNY   68  43  40 E3        30.26F

...WESTERN MONTANA...

CITY           SKY/WX    TMP DP  RH WIND       PRES   REMARKS
MISSOULA         N/A    N/A N/A N/A MISG      30.30F

...NEIGHBORING CITIES...

CITY           SKY/WX    TMP DP  RH WIND       PRES   REMARKS
SEATTLE        SUNNY     77  52  41 N3        30.11F
CALGARY        MOSUNNY   70  43  37 CALM      30.25S



USA.gov is the U.S. government's official web portal to all federal, state and local government web resources and services.